| time (UTC) | temp F | wind direction | speed MPH | gust MPH | rain 1hr in | rain 24hr in | rain mn in | humidity % | barometer mb |
| 20260507114548 | 0 | 0.0 | 0.0 | 0.00 | 0.00 | 0.00 | 1017.8 | ||
| 20260507114042 | 0 | 0.0 | 0.0 | 0.00 | 0.00 | 0.00 | 1017.7 | ||
| 20260507113540 | 0 | 0.0 | 0.0 | 0.00 | 0.00 | 0.00 | 1017.4 | ||
| 20260507113043 | 0 | 0.0 | 0.0 | 0.00 | 0.00 | 0.00 | 1017.1 | ||
| 20260507112538 | 0 | 0.0 | 0.0 | 0.00 | 0.00 | 0.00 | 1016.8 | ||
| 20260507112040 | 0 | 0.0 | 0.0 | 0.00 | 0.00 | 0.00 | 1016.8 | ||
| 20260507111549 | 0 | 0.0 | 0.0 | 0.00 | 0.00 | 0.00 | 1016.5 | ||
| 20260507111039 | 0 | 0.0 | 0.0 | 0.00 | 0.00 | 0.00 | 1016.7 | ||
| 20260507110539 | 0 | 0.0 | 0.0 | 0.00 | 0.00 | 0.00 | 1016.6 | ||
| 20260507110048 | 0 | 0.0 | 0.0 | 0.00 | 0.00 | 0.00 | 1016.7 | ||
| 20260507105539 | 0 | 0.0 | 0.0 | 0.00 | 0.00 | 0.00 | 1016.7 | ||
| 20260507105039 | 0 | 0.0 | 0.0 | 0.00 | 0.00 | 0.00 | 1016.7 | ||
| 20260507104548 | 0 | 0.0 | 0.0 | 0.00 | 0.00 | 0.00 | 1016.8 | ||
| 20260507104039 | 0 | 0.0 | 0.0 | 0.00 | 0.00 | 0.00 | 1016.8 | ||
| 20260507103540 | 0 | 0.0 | 0.0 | 0.00 | 0.00 | 0.00 | 1016.8 | ||
| 20260507103044 | 0 | 0.0 | 0.0 | 0.00 | 0.00 | 0.00 | 1016.5 | ||
| 20260507102540 | 0 | 0.0 | 0.0 | 0.00 | 0.00 | 0.00 | 1016.6 | ||
| 20260507102040 | 0 | 0.0 | 0.0 | 0.00 | 0.00 | 0.00 | 1016.6 | ||
| 20260507101549 | 0 | 0.0 | 0.0 | 0.00 | 0.00 | 0.00 | 1016.5 | ||
| 20260507101041 | 0 | 0.0 | 0.0 | 0.00 | 0.00 | 0.00 | 1016.5 | ||
| 20260507100538 | 0 | 0.0 | 0.0 | 0.00 | 0.00 | 0.00 | 1016.5 | ||
| 20260507100044 | 0 | 0.0 | 0.0 | 0.00 | 0.00 | 0.00 | 1016.6 | ||
| 20260507095540 | 0 | 0.0 | 0.0 | 0.00 | 0.00 | 0.00 | 1016.7 | ||
| 20260507095039 | 0 | 0.0 | 0.0 | 0.00 | 0.00 | 0.00 | 1016.6 | ||
| 20260507094552 | 0 | 0.0 | 0.0 | 0.00 | 0.00 | 0.00 | 1016.5 | ||
| 20260507094039 | 0 | 0.0 | 0.0 | 0.00 | 0.00 | 0.00 | 1016.7 | ||
| 20260507093538 | 0 | 0.0 | 0.0 | 0.00 | 0.00 | 0.00 | 1016.8 | ||
| 20260507093049 | 0 | 0.0 | 0.0 | 0.00 | 0.00 | 0.00 | 1016.7 | ||
| 20260507092539 | 64 | 0.0 | 1.0 | 0.00 | 0.00 | 0.00 | 82 | 1016.8 | |
| 20260507092044 | 64 | 0.0 | 1.0 | 0.00 | 0.00 | 0.00 | 82 | 1016.7 | |
| 20260507091544 | 64 | 0 | 0.0 | 1.0 | 0.00 | 0.00 | 0.00 | 82 | 1016.7 |
| 20260507091037 | 64 | 0 | 0.0 | 1.0 | 0.00 | 0.00 | 0.00 | 82 | 1016.8 |
| 20260507090538 | 64 | 0 | 0.0 | 5.0 | 0.00 | 0.00 | 0.00 | 83 | 1016.7 |
| 20260507090047 | 64 | 0 | 0.0 | 5.0 | 0.00 | 0.00 | 0.00 | 82 | 1016.7 |
| 20260507085541 | 64 | 0 | 0.0 | 5.0 | 0.00 | 0.00 | 0.00 | 82 | 1016.5 |
| 20260507085040 | 64 | 0 | 0.0 | 2.0 | 0.00 | 0.00 | 0.00 | 82 | 1016.6 |
| 20260507084553 | 64 | 0 | 0.0 | 1.0 | 0.00 | 0.00 | 0.00 | 82 | 1016.5 |
| 20260507084039 | 64 | 0 | 0.0 | 1.0 | 0.00 | 0.00 | 0.00 | 82 | 1016.5 |
| 20260507083540 | 64 | 0 | 0.0 | 1.0 | 0.00 | 0.00 | 0.00 | 82 | 1016.5 |
| 20260507083053 | 64 | 0 | 0.0 | 1.0 | 0.00 | 0.00 | 0.00 | 82 | 1016.5 |
| 20260507082544 | 64 | 0 | 0.0 | 1.0 | 0.00 | 0.00 | 0.00 | 82 | 1016.5 |
| 20260507082044 | 64 | 0 | 0.0 | 1.0 | 0.00 | 0.00 | 0.00 | 83 | 1016.6 |
| 20260507081549 | 64 | 0 | 0.0 | 3.0 | 0.00 | 0.00 | 0.00 | 83 | 1016.7 |
| 20260507081041 | 64 | 0 | 0.0 | 3.0 | 0.00 | 0.00 | 0.00 | 83 | 1016.6 |
| 20260507080539 | 64 | 359 | 0.0 | 0.0 | 0.00 | 0.00 | 0.00 | 83 | 1016.6 |
| 20260507080113 | 64 | 0 | 0.0 | 0.0 | 0.00 | 0.00 | 0.00 | 83 | 1016.6 |
| 20260507075540 | 64 | 0 | 0.0 | 1.0 | 0.00 | 0.00 | 0.00 | 83 | 1016.4 |
| 20260507075040 | 64 | 0 | 0.0 | 1.0 | 0.00 | 0.00 | 0.00 | 83 | 1016.5 |
| 20260507074547 | 64 | 19 | 0.0 | 10.0 | 0.00 | 0.00 | 0.00 | 83 | 1016.4 |
| 20260507074039 | 64 | 0 | 0.0 | 10.0 | 0.00 | 0.00 | 0.00 | 83 | 1016.6 |
| 20260507073540 | 65 | 40 | 0.0 | 2.0 | 0.00 | 0.00 | 0.00 | 83 | 1016.8 |
| 20260507073101 | 65 | 0 | 0.0 | 1.0 | 0.00 | 0.00 | 0.00 | 83 | 1016.8 |
| 20260507072540 | 65 | 0 | 0.0 | 1.0 | 0.00 | 0.00 | 0.00 | 83 | 1016.8 |
| 20260507072042 | 65 | 0 | 0.0 | 3.0 | 0.00 | 0.00 | 0.00 | 83 | 1016.9 |
| 20260507071603 | 65 | 0 | 0.0 | 3.0 | 0.00 | 0.00 | 0.00 | 83 | 1016.9 |
| 20260507071038 | 65 | 27 | 0.0 | 3.0 | 0.00 | 0.00 | 0.00 | 83 | 1017.1 |
| 20260507070540 | 65 | 0 | 0.0 | 3.0 | 0.00 | 0.00 | 0.00 | 83 | 1017.0 |
| 20260507070048 | 65 | 0 | 0.0 | 3.0 | 0.00 | 0.00 | 0.00 | 83 | 1016.9 |
| 20260507065539 | 65 | 0 | 0.0 | 3.0 | 0.00 | 0.00 | 0.00 | 83 | 1017.1 |
| 20260507065039 | 65 | 0 | 0.0 | 3.0 | 0.00 | 0.00 | 0.00 | 83 | 1017.0 |
| 20260507064555 | 65 | 0 | 0.0 | 5.0 | 0.00 | 0.00 | 0.00 | 83 | 1016.8 |
| 20260507064040 | 65 | 25 | 0.0 | 5.0 | 0.00 | 0.00 | 0.00 | 83 | 1016.8 |
| 20260507063540 | 65 | 0 | 0.0 | 2.0 | 0.00 | 0.00 | 0.00 | 83 | 1016.9 |
| 20260507063058 | 65 | 0 | 0.0 | 2.0 | 0.00 | 0.00 | 0.00 | 83 | 1017.0 |
| 20260507062540 | 65 | 0 | 0.0 | 3.0 | 0.00 | 0.00 | 0.00 | 83 | 1017.0 |
| 20260507062040 | 65 | 0 | 0.0 | 3.0 | 0.00 | 0.00 | 0.00 | 83 | 1016.8 |
| 20260507061554 | 65 | 8 | 0.0 | 3.0 | 0.00 | 0.00 | 0.00 | 83 | 1016.8 |
| 20260507061040 | 65 | 0 | 0.0 | 3.0 | 0.00 | 0.00 | 0.00 | 83 | 1016.6 |
| 20260507060541 | 65 | 0 | 0.0 | 3.0 | 0.00 | 0.00 | 0.00 | 83 | 1016.5 |
| 20260507060053 | 65 | 0 | 0.0 | 3.0 | 0.00 | 0.00 | 0.00 | 83 | 1016.6 |
| 20260507055540 | 64 | 21 | 0.0 | 2.0 | 0.00 | 0.00 | 0.00 | 83 | 1016.5 |
| 20260507055040 | 64 | 0 | 0.0 | 2.0 | 0.00 | 0.00 | 0.00 | 83 | 1016.5 |
| 20260507054552 | 65 | 18 | 0.0 | 3.0 | 0.00 | 0.00 | 0.00 | 83 | 1016.3 |
| 20260507054040 | 65 | 0 | 0.0 | 4.0 | 0.00 | 0.00 | 0.00 | 83 | 1016.6 |
| 20260507053540 | 65 | 12 | 1.0 | 4.0 | 0.00 | 0.00 | 0.00 | 82 | 1016.5 |
| 20260507053049 | 65 | 0 | 0.0 | 4.0 | 0.00 | 0.00 | 0.00 | 82 | 1016.3 |
| 20260507052539 | 65 | 357 | 0.0 | 5.0 | 0.00 | 0.00 | 0.00 | 82 | 1016.0 |
| 20260507052039 | 65 | 23 | 0.0 | 5.0 | 0.00 | 0.00 | 0.00 | 83 | 1015.9 |
| 20260507051549 | 65 | 0 | 0.0 | 5.0 | 0.00 | 0.00 | 0.00 | 82 | 1015.6 |
| 20260507051041 | 65 | 0 | 0.0 | 3.0 | 0.00 | 0.00 | 0.00 | 83 | 1015.9 |
| 20260507050538 | 65 | 6 | 0.0 | 4.0 | 0.00 | 0.00 | 0.00 | 83 | 1015.8 |
| 20260507050057 | 65 | 17 | 0.0 | 4.0 | 0.00 | 0.00 | 0.00 | 83 | 1016.0 |
| 20260507045540 | 65 | 0 | 0.0 | 4.0 | 0.00 | 0.00 | 0.00 | 83 | 1015.7 |
| 20260507045040 | 65 | 0 | 0.0 | 9.0 | 0.00 | 0.00 | 0.00 | 83 | 1015.7 |
| 20260507044551 | 65 | 0 | 0.0 | 9.0 | 0.00 | 0.00 | 0.00 | 83 | 1015.8 |
| 20260507044042 | 65 | 4 | 1.0 | 9.0 | 0.00 | 0.00 | 0.00 | 82 | 1016.1 |
| 20260507043539 | 65 | 0 | 0.0 | 4.0 | 0.00 | 0.00 | 0.00 | 82 | 1016.2 |
| 20260507043049 | 65 | 5 | 0.0 | 2.0 | 0.00 | 0.00 | 0.00 | 82 | 1016.2 |
| 20260507042540 | 65 | 0 | 0.0 | 2.0 | 0.00 | 0.00 | 0.00 | 82 | 1016.2 |
| 20260507042039 | 65 | 0 | 0.0 | 6.0 | 0.00 | 0.00 | 0.00 | 83 | 1016.2 |
| 20260507041559 | 65 | 0 | 0.0 | 6.0 | 0.00 | 0.00 | 0.00 | 83 | 1016.2 |
| 20260507041040 | 65 | 0 | 0.0 | 3.0 | 0.00 | 0.00 | 0.00 | 83 | 1016.0 |
| 20260507040541 | 65 | 0 | 0.0 | 3.0 | 0.00 | 0.00 | 0.00 | 83 | 1015.8 |
| 20260507040059 | 65 | 0 | 0.0 | 3.0 | 0.00 | 0.00 | 0.00 | 83 | 1015.7 |
| 20260507035539 | 65 | 0 | 0.0 | 1.0 | 0.00 | 0.00 | 0.00 | 83 | 1015.5 |
| 20260507035039 | 65 | 0 | 0.0 | 1.0 | 0.00 | 0.00 | 0.00 | 83 | 1015.4 |
| 20260507034558 | 65 | 8 | 0.0 | 3.0 | 0.00 | 0.00 | 0.00 | 83 | 1015.3 |
| 20260507034040 | 65 | 0 | 0.0 | 3.0 | 0.00 | 0.00 | 0.00 | 83 | 1015.3 |
| 20260507033538 | 65 | 0 | 0.0 | 4.0 | 0.00 | 0.00 | 0.00 | 83 | 1015.2 |
| 20260507033057 | 65 | 10 | 1.0 | 4.0 | 0.00 | 0.00 | 0.00 | 83 | 1015.2 |
| 20260507032542 | 65 | 0 | 0.0 | 5.0 | 0.00 | 0.00 | 0.00 | 83 | 1015.2 |
| 20260507032039 | 65 | 0 | 0.0 | 5.0 | 0.00 | 0.00 | 0.00 | 82 | 1015.3 |
| 20260507031550 | 66 | 6 | 0.0 | 5.0 | 0.00 | 0.00 | 0.00 | 82 | 1015.2 |
| 20260507031039 | 66 | 0 | 1.0 | 5.0 | 0.00 | 0.00 | 0.00 | 82 | 1015.2 |
| 20260507030538 | 66 | 0 | 0.0 | 7.0 | 0.00 | 0.00 | 0.00 | 82 | 1015.2 |
| 20260507030054 | 66 | 18 | 1.0 | 7.0 | 0.00 | 0.00 | 0.00 | 82 | 1015.1 |
| 20260507025539 | 66 | 18 | 1.0 | 5.0 | 0.00 | 0.00 | 0.00 | 82 | 1015.2 |
| 20260507025041 | 66 | 0 | 0.0 | 3.0 | 0.00 | 0.00 | 0.00 | 82 | 1015.1 |
| 20260507024557 | 66 | 321 | 0.0 | 3.0 | 0.00 | 0.00 | 0.00 | 82 | 1015.2 |
| 20260507024040 | 66 | 0 | 0.0 | 3.0 | 0.00 | 0.00 | 0.00 | 81 | 1015.2 |
| 20260507023538 | 66 | 28 | 0.0 | 3.0 | 0.00 | 0.00 | 0.00 | 82 | 1015.0 |
| 20260507023048 | 66 | 0 | 0.0 | 1.0 | 0.00 | 0.00 | 0.00 | 81 | 1014.8 |
| 20260507022540 | 66 | 0 | 0.0 | 0.0 | 0.00 | 0.00 | 0.00 | 81 | 1014.7 |
| 20260507022040 | 66 | 0 | 0.0 | 3.0 | 0.00 | 0.00 | 0.00 | 81 | 1014.7 |
| 20260507021549 | 67 | 0 | 0.0 | 3.0 | 0.00 | 0.00 | 0.00 | 81 | 1014.7 |
| 20260507021038 | 67 | 0 | 0.0 | 4.0 | 0.00 | 0.00 | 0.00 | 81 | 1014.7 |
| 20260507020540 | 67 | 0 | 0.0 | 8.0 | 0.00 | 0.00 | 0.00 | 81 | 1014.4 |
| 20260507020100 | 67 | 360 | 0.0 | 8.0 | 0.00 | 0.00 | 0.00 | 80 | 1014.5 |
| 20260507015539 | 67 | 0 | 2.0 | 8.0 | 0.00 | 0.00 | 0.00 | 80 | 1014.3 |
| 20260507015040 | 68 | 0 | 0.0 | 4.0 | 0.00 | 0.00 | 0.00 | 79 | 1014.1 |
| 20260507014557 | 68 | 0 | 0.0 | 4.0 | 0.00 | 0.00 | 0.00 | 79 | 1014.5 |
| 20260507014039 | 68 | 0 | 0.0 | 1.0 | 0.00 | 0.00 | 0.00 | 79 | 1013.5 |
| 20260507013542 | 68 | 0 | 0.0 | 3.0 | 0.00 | 0.00 | 0.00 | 79 | 1013.7 |
| 20260507013044 | 69 | 0 | 0.0 | 4.0 | 0.00 | 0.00 | 0.00 | 79 | 1013.7 |
| 20260507012542 | 69 | 0 | 0.0 | 6.0 | 0.00 | 0.00 | 0.00 | 79 | 1013.8 |
| 20260507012040 | 69 | 0 | 1.0 | 6.0 | 0.00 | 0.00 | 0.00 | 79 | 1013.5 |
| 20260507011555 | 69 | 0 | 0.0 | 4.0 | 0.00 | 0.00 | 0.00 | 78 | 1013.6 |
| 20260507011039 | 70 | 0 | 1.0 | 4.0 | 0.00 | 0.00 | 0.00 | 78 | 1013.7 |
| 20260507010539 | 70 | 0 | 0.0 | 4.0 | 0.00 | 0.00 | 0.00 | 78 | 1013.5 |
| 20260507010050 | 70 | 0 | 0.0 | 5.0 | 0.00 | 0.00 | 0.00 | 77 | 1013.5 |
| 20260507005540 | 70 | 0 | 0.0 | 5.0 | 0.00 | 0.00 | 0.00 | 77 | 1013.5 |
| 20260507005041 | 71 | 6 | 0.0 | 4.0 | 0.00 | 0.00 | 0.00 | 77 | 1013.5 |
| 20260507004550 | 71 | 0 | 0.0 | 4.0 | 0.00 | 0.00 | 0.00 | 77 | 1013.6 |
| 20260507004039 | 71 | 1 | 1.0 | 4.0 | 0.00 | 0.00 | 0.00 | 77 | 1013.1 |
| 20260507003544 | 71 | 0 | 2.0 | 6.0 | 0.00 | 0.00 | 0.00 | 77 | 1013.1 |
| 20260507003049 | 71 | 6 | 0.0 | 6.0 | 0.00 | 0.00 | 0.00 | 77 | 1012.8 |
| 20260507002539 | 72 | 11 | 1.0 | 6.0 | 0.00 | 0.00 | 0.00 | 77 | 1012.8 |
| 20260507002040 | 72 | 36 | 2.0 | 6.0 | 0.00 | 0.00 | 0.00 | 77 | 1012.9 |
| 20260507001613 | 72 | 13 | 3.0 | 5.0 | 0.00 | 0.00 | 0.00 | 76 | 1012.9 |
| 20260507001039 | 73 | 13 | 3.0 | 5.0 | 0.00 | 0.00 | 0.00 | 75 | 1013.0 |
| 20260507000544 | 73 | 1 | 0.0 | 8.0 | 0.00 | 0.00 | 0.00 | 75 | 1012.8 |
| 20260507000058 | 74 | 7 | 2.0 | 8.0 | 0.00 | 0.00 | 0.00 | 75 | 1012.7 |
| 20260506235541 | 74 | 17 | 3.0 | 11.0 | 0.00 | 0.00 | 0.00 | 74 | 1012.5 |
| 20260506235039 | 75 | 44 | 2.0 | 11.0 | 0.00 | 0.00 | 0.00 | 74 | 1012.4 |
| 20260506234548 | 75 | 356 | 4.0 | 11.0 | 0.00 | 0.00 | 0.00 | 72 | 1012.4 |
| 20260506234039 | 76 | 19 | 2.0 | 6.0 | 0.00 | 0.00 | 0.00 | 73 | 1012.1 |
| 20260506233540 | 77 | 13 | 2.0 | 6.0 | 0.00 | 0.00 | 0.00 | 73 | 1012.1 |
| 20260506233052 | 77 | 27 | 0.0 | 6.0 | 0.00 | 0.00 | 0.00 | 73 | 1012.1 |
| 20260506232539 | 77 | 11 | 3.0 | 6.0 | 0.00 | 0.00 | 0.00 | 74 | 1011.9 |
| 20260506232037 | 78 | 16 | 2.0 | 6.0 | 0.00 | 0.00 | 0.00 | 73 | 1011.9 |
| 20260506231544 | 78 | 15 | 3.0 | 6.0 | 0.00 | 0.00 | 0.00 | 72 | 1011.8 |
| 20260506231038 | 79 | 14 | 3.0 | 6.0 | 0.00 | 0.00 | 0.00 | 72 | 1011.7 |
| 20260506230541 | 79 | 11 | 0.0 | 7.0 | 0.00 | 0.00 | 0.00 | 73 | 1011.6 |
| 20260506230052 | 79 | 356 | 2.0 | 7.0 | 0.00 | 0.00 | 0.00 | 72 | 1011.5 |
| 20260506225540 | 79 | 13 | 2.0 | 7.0 | 0.00 | 0.00 | 0.00 | 73 | 1011.5 |
| 20260506225040 | 79 | 3 | 3.0 | 7.0 | 0.00 | 0.00 | 0.00 | 73 | 1011.6 |
| 20260506224548 | 80 | 13 | 3.0 | 5.0 | 0.00 | 0.00 | 0.00 | 72 | 1011.4 |
| 20260506224039 | 80 | 3 | 3.0 | 7.0 | 0.00 | 0.00 | 0.00 | 71 | 1011.3 |
| 20260506223538 | 81 | 10 | 2.0 | 7.0 | 0.00 | 0.00 | 0.00 | 71 | 1011.4 |
| 20260506223042 | 81 | 358 | 2.0 | 8.0 | 0.00 | 0.00 | 0.00 | 71 | 1011.2 |
| 20260506222539 | 82 | 15 | 2.0 | 8.0 | 0.00 | 0.00 | 0.00 | 72 | 1011.1 |
| 20260506222041 | 82 | 11 | 3.0 | 7.0 | 0.00 | 0.00 | 0.00 | 73 | 1011.0 |
| 20260506221547 | 82 | 20 | 3.0 | 7.0 | 0.00 | 0.00 | 0.00 | 73 | 1011.0 |
| 20260506221038 | 82 | 24 | 2.0 | 7.0 | 0.00 | 0.00 | 0.00 | 73 | 1011.0 |
| 20260506220540 | 82 | 27 | 3.0 | 7.0 | 0.00 | 0.00 | 0.00 | 73 | 1010.8 |
| 20260506220059 | 83 | 14 | 2.0 | 5.0 | 0.00 | 0.00 | 0.00 | 73 | 1010.9 |
| 20260506215541 | 83 | 13 | 2.0 | 6.0 | 0.00 | 0.00 | 0.00 | 72 | 1010.9 |
| 20260506215041 | 84 | 6 | 2.0 | 6.0 | 0.00 | 0.00 | 0.00 | 70 | 1010.7 |
| 20260506214552 | 85 | 0 | 0.0 | 6.0 | 0.00 | 0.00 | 0.00 | 68 | 1010.8 |
| 20260506214040 | 86 | 39 | 2.0 | 6.0 | 0.00 | 0.00 | 0.00 | 67 | 1010.6 |
| 20260506213539 | 87 | 49 | 0.0 | 5.0 | 0.00 | 0.00 | 0.00 | 68 | 1010.8 |
| 20260506213055 | 87 | 0 | 0.0 | 5.0 | 0.00 | 0.00 | 0.00 | 68 | 1010.7 |
| 20260506212540 | 87 | 24 | 0.0 | 9.0 | 0.00 | 0.00 | 0.00 | 67 | 1010.7 |
| 20260506212041 | 87 | 0 | 3.0 | 9.0 | 0.00 | 0.00 | 0.00 | 67 | 1010.8 |
| 20260506211547 | 87 | 41 | 1.0 | 5.0 | 0.00 | 0.00 | 0.00 | 67 | 1010.7 |
| 20260506211039 | 88 | 49 | 0.0 | 3.0 | 0.00 | 0.00 | 0.00 | 64 | 1010.8 |
| 20260506210542 | 88 | 79 | 1.0 | 4.0 | 0.00 | 0.00 | 0.00 | 66 | 1010.8 |
| 20260506210100 | 88 | 190 | 1.0 | 8.0 | 0.00 | 0.00 | 0.00 | 67 | 1010.8 |
| 20260506205539 | 88 | 171 | 2.0 | 8.0 | 0.00 | 0.00 | 0.00 | 65 | 1011.0 |
| 20260506205041 | 88 | 32 | 2.0 | 8.0 | 0.00 | 0.00 | 0.00 | 66 | 1011.1 |
| 20260506204550 | 88 | 0 | 0.0 | 4.0 | 0.00 | 0.00 | 0.00 | 64 | 1010.8 |
| 20260506204039 | 87 | 0 | 0.0 | 6.0 | 0.00 | 0.00 | 0.00 | 64 | 1010.8 |
| 20260506203540 | 88 | 18 | 2.0 | 6.0 | 0.00 | 0.00 | 0.00 | 66 | 1011.0 |
| 20260506203121 | 87 | 0 | 3.0 | 6.0 | 0.00 | 0.00 | 0.00 | 68 | 1011.0 |
| 20260506202540 | 88 | 53 | 1.0 | 5.0 | 0.00 | 0.00 | 0.00 | 66 | 1011.1 |
| 20260506202040 | 88 | 37 | 2.0 | 6.0 | 0.00 | 0.00 | 0.00 | 67 | 1011.2 |
| 20260506201549 | 88 | 0 | 2.0 | 6.0 | 0.00 | 0.00 | 0.00 | 66 | 1011.2 |
| 20260506201039 | 88 | 0 | 0.0 | 0.0 | 0.00 | 0.00 | 0.00 | 69 | 1011.3 |
| 20260506200539 | 86 | 0 | 0.0 | 0.0 | 0.00 | 0.00 | 0.00 | 67 | 1011.5 |
| 20260506200051 | 86 | 0 | 0.0 | 4.0 | 0.00 | 0.00 | 0.00 | 70 | 1011.6 |
| 20260506195538 | 85 | 0 | 0.0 | 5.0 | 0.00 | 0.00 | 0.00 | 71 | 1011.7 |
| 20260506195039 | 85 | 65 | 1.0 | 5.0 | 0.00 | 0.00 | 0.00 | 71 | 1011.8 |
| 20260506194549 | 86 | 0 | 0.0 | 1.0 | 0.00 | 0.00 | 0.00 | 72 | 1011.5 |
| 20260506194040 | 86 | 0 | 0.0 | 3.0 | 0.00 | 0.00 | 0.00 | 71 | 1011.5 |
| 20260506193540 | 86 | 0 | 0.0 | 3.0 | 0.00 | 0.00 | 0.00 | 72 | 1011.7 |
| 20260506193045 | 86 | 37 | 0.0 | 5.0 | 0.00 | 0.00 | 0.00 | 71 | 1011.8 |
| 20260506192540 | 85 | 0 | 0.0 | 5.0 | 0.00 | 0.00 | 0.00 | 72 | 1011.8 |
| 20260506192040 | 84 | 0 | 3.0 | 5.0 | 0.00 | 0.00 | 0.00 | 75 | 1011.7 |
| 20260506191550 | 84 | 94 | 2.0 | 4.0 | 0.00 | 0.00 | 0.00 | 72 | 1011.8 |
| 20260506191040 | 84 | 0 | 1.0 | 5.0 | 0.00 | 0.00 | 0.00 | 75 | 1011.9 |
| 20260506190540 | 84 | 94 | 1.0 | 5.0 | 0.00 | 0.00 | 0.00 | 72 | 1011.9 |
| 20260506190053 | 84 | 0 | 1.0 | 4.0 | 0.00 | 0.00 | 0.00 | 76 | 1012.0 |
| 20260506185540 | 83 | 0 | 0.0 | 4.0 | 0.00 | 0.00 | 0.00 | 77 | 1011.9 |
| 20260506185039 | 83 | 0 | 0.0 | 5.0 | 0.00 | 0.00 | 0.00 | 77 | 1012.0 |
| 20260506184556 | 83 | 18 | 1.0 | 6.0 | 0.00 | 0.00 | 0.00 | 78 | 1012.1 |
| 20260506184039 | 82 | 0 | 0.0 | 6.0 | 0.00 | 0.00 | 0.00 | 78 | 1012.2 |
| 20260506183538 | 81 | 76 | 0.0 | 2.0 | 0.00 | 0.00 | 0.00 | 80 | 1012.2 |
| 20260506183049 | 81 | 0 | 0.0 | 1.0 | 0.00 | 0.00 | 0.00 | 80 | 1012.3 |
| 20260506182541 | 81 | 18 | 0.0 | 2.0 | 0.00 | 0.00 | 0.00 | 81 | 1012.5 |
| 20260506182042 | 80 | 0 | 0.0 | 2.0 | 0.00 | 0.00 | 0.00 | 81 | 1012.7 |
| 20260506181600 | 80 | 0 | 0.0 | 2.0 | 0.00 | 0.00 | 0.00 | 81 | 1012.7 |
| 20260506181040 | 81 | 0 | 0.0 | 2.0 | 0.00 | 0.00 | 0.00 | 81 | 1012.7 |
| 20260506180540 | 81 | 29 | 0.0 | 2.0 | 0.00 | 0.00 | 0.00 | 80 | 1012.8 |
| 20260506180046 | 81 | 0 | 0.0 | 2.0 | 0.00 | 0.00 | 0.00 | 80 | 1012.7 |
| 20260506175539 | 81 | 0 | 0.0 | 2.0 | 0.00 | 0.00 | 0.00 | 79 | 1012.8 |
| 20260506175043 | 82 | 0 | 0.0 | 4.0 | 0.00 | 0.00 | 0.00 | 78 | 1012.8 |
| 20260506174604 | 81 | 0 | 0.0 | 4.0 | 0.00 | 0.00 | 0.00 | 79 | 1012.7 |
| 20260506174040 | 81 | 75 | 0.0 | 4.0 | 0.00 | 0.00 | 0.00 | 80 | 1012.8 |
| 20260506173539 | 81 | 78 | 0.0 | 4.0 | 0.00 | 0.00 | 0.00 | 80 | 1012.8 |
| 20260506173056 | 81 | 0 | 1.0 | 4.0 | 0.00 | 0.00 | 0.00 | 82 | 1012.8 |
| 20260506172539 | 81 | 0 | 0.0 | 4.0 | 0.00 | 0.00 | 0.00 | 81 | 1012.8 |
| 20260506172040 | 81 | 0 | 0.0 | 4.0 | 0.00 | 0.00 | 0.00 | 81 | 1012.8 |
| 20260506171547 | 80 | 14 | 0.0 | 5.0 | 0.00 | 0.00 | 0.00 | 82 | 1012.9 |
| 20260506171040 | 80 | 27 | 1.0 | 5.0 | 0.00 | 0.00 | 0.00 | 81 | 1012.9 |
| 20260506170539 | 80 | 0 | 0.0 | 1.0 | 0.00 | 0.00 | 0.00 | 83 | 1012.9 |
| 20260506170050 | 80 | 0 | 0.0 | 2.0 | 0.00 | 0.00 | 0.00 | 83 | 1012.9 |
| 20260506165540 | 79 | 0 | 0.0 | 4.0 | 0.00 | 0.00 | 0.00 | 84 | 1013.0 |
| 20260506165040 | 79 | 32 | 1.0 | 4.0 | 0.00 | 0.00 | 0.00 | 84 | 1013.0 |
| 20260506164547 | 79 | 0 | 0.0 | 3.0 | 0.00 | 0.00 | 0.00 | 85 | 1013.0 |
| 20260506164038 | 79 | 41 | 0.0 | 2.0 | 0.00 | 0.00 | 0.00 | 85 | 1013.0 |
| 20260506163538 | 79 | 8 | 0.0 | 3.0 | 0.00 | 0.00 | 0.00 | 85 | 1012.8 |
| 20260506163103 | 79 | 0 | 0.0 | 3.0 | 0.00 | 0.00 | 0.00 | 85 | 1012.8 |
| 20260506162539 | 79 | 0 | 1.0 | 3.0 | 0.00 | 0.00 | 0.00 | 85 | 1012.9 |
| 20260506162040 | 79 | 47 | 0.0 | 3.0 | 0.00 | 0.00 | 0.00 | 86 | 1012.9 |
| 20260506161549 | 78 | 0 | 0.0 | 3.0 | 0.00 | 0.00 | 0.00 | 87 | 1012.8 |
| 20260506161044 | 78 | 0 | 1.0 | 3.0 | 0.00 | 0.00 | 0.00 | 87 | 1012.7 |
| 20260506160539 | 78 | 0 | 0.0 | 2.0 | 0.00 | 0.00 | 0.00 | 87 | 1012.7 |
| 20260506160051 | 78 | 43 | 0.0 | 3.0 | 0.00 | 0.00 | 0.00 | 87 | 1012.8 |
| 20260506155540 | 78 | 0 | 0.0 | 3.0 | 0.00 | 0.00 | 0.00 | 87 | 1012.6 |
| 20260506155040 | 78 | 55 | 0.0 | 3.0 | 0.00 | 0.00 | 0.00 | 87 | 1012.6 |
| 20260506154553 | 77 | 0 | 0.0 | 0.0 | 0.00 | 0.00 | 0.00 | 88 | 1012.5 |
| 20260506154043 | 77 | 0 | 0.0 | 0.0 | 0.00 | 0.00 | 0.00 | 88 | 1012.5 |
| 20260506153541 | 0 | 0.0 | 0.0 | 0.00 | 0.00 | 0.00 | 1012.5 | ||
| 20260506153044 | 0 | 0.0 | 0.0 | 0.00 | 0.00 | 0.00 | 1012.4 | ||
| 20260506152538 | 0 | 0.0 | 0.0 | 0.00 | 0.00 | 0.00 | 1012.3 | ||
| 20260506152040 | 0 | 0.0 | 0.0 | 0.00 | 0.00 | 0.00 | 1012.1 | ||
| 20260506151551 | 0 | 0.0 | 0.0 | 0.00 | 0.00 | 0.00 | 1012.1 | ||
| 20260506151038 | 0 | 0.0 | 0.0 | 0.00 | 0.00 | 0.00 | 1012.1 | ||
| 20260506150537 | 0 | 0.0 | 0.0 | 0.00 | 0.00 | 0.00 | 1012.1 | ||
| 20260506150050 | 0 | 0.0 | 0.0 | 0.00 | 0.00 | 0.00 | 1012.1 | ||
| 20260506145541 | 0 | 0.0 | 0.0 | 0.00 | 0.00 | 0.00 | 1012.1 | ||
| 20260506145037 | 0 | 0.0 | 0.0 | 0.00 | 0.00 | 0.00 | 1012.0 | ||
| 20260506144548 | 0 | 0.0 | 0.0 | 0.00 | 0.00 | 0.00 | 1012.0 | ||
| 20260506144040 | 0 | 0.0 | 0.0 | 0.00 | 0.00 | 0.00 | 1011.9 | ||
| 20260506143537 | 0 | 0.0 | 0.0 | 0.00 | 0.00 | 0.00 | 1011.8 | ||
| 20260506143049 | 0 | 0.0 | 0.0 | 0.00 | 0.00 | 0.00 | 1011.7 | ||
| 20260506142538 | 0 | 0.0 | 0.0 | 0.00 | 0.00 | 0.00 | 1011.6 | ||
| 20260506142037 | 0 | 0.0 | 0.0 | 0.00 | 0.00 | 0.00 | 1011.5 | ||
| 20260506141550 | 0 | 0.0 | 0.0 | 0.00 | 0.00 | 0.00 | 1011.5 | ||
| 20260506141039 | 0 | 0.0 | 0.0 | 0.00 | 0.00 | 0.00 | 1011.5 | ||
| 20260506140544 | 0 | 0.0 | 0.0 | 0.00 | 0.00 | 0.00 | 1011.4 | ||
| 20260506140050 | 0 | 0.0 | 0.0 | 0.00 | 0.00 | 0.00 | 1011.3 | ||
| 20260506135539 | 0 | 0.0 | 0.0 | 0.00 | 0.00 | 0.00 | 1011.2 | ||
| 20260506135039 | 0 | 0.0 | 0.0 | 0.00 | 0.00 | 0.00 | 1011.1 | ||
| 20260506134554 | 0 | 0.0 | 0.0 | 0.00 | 0.00 | 0.00 | 1010.9 | ||
| 20260506134038 | 0 | 0.0 | 0.0 | 0.00 | 0.00 | 0.00 | 1010.8 | ||
| 20260506133538 | 0 | 0.0 | 0.0 | 0.00 | 0.00 | 0.00 | 1010.8 | ||
| 20260506133050 | 0 | 0.0 | 0.0 | 0.00 | 0.00 | 0.00 | 1010.8 | ||
| 20260506132541 | 0 | 0.0 | 0.0 | 0.00 | 0.00 | 0.00 | 1010.8 | ||
| 20260506132038 | 0 | 0.0 | 0.0 | 0.00 | 0.00 | 0.00 | 1010.8 | ||
| 20260506131551 | 0 | 0.0 | 0.0 | 0.00 | 0.00 | 0.00 | 1010.6 | ||
| 20260506131039 | 0 | 0.0 | 0.0 | 0.00 | 0.00 | 0.00 | 1010.5 | ||
| 20260506130538 | 0 | 0.0 | 0.0 | 0.00 | 0.00 | 0.00 | 1010.4 | ||
| 20260506130043 | 0 | 0.0 | 0.0 | 0.00 | 0.00 | 0.00 | 1010.3 | ||
| 20260506125540 | 0 | 0.0 | 0.0 | 0.00 | 0.00 | 0.00 | 1010.4 | ||
| 20260506125038 | 0 | 0.0 | 0.0 | 0.00 | 0.00 | 0.00 | 1010.4 | ||
| 20260506124549 | 0 | 0.0 | 0.0 | 0.00 | 0.00 | 0.00 | 1010.5 | ||
| 20260506124038 | 0 | 0.0 | 0.0 | 0.00 | 0.00 | 0.00 | 1010.6 | ||
| 20260506123538 | 0 | 0.0 | 0.0 | 0.00 | 0.00 | 0.00 | 1010.6 | ||
| 20260506123052 | 0 | 0.0 | 0.0 | 0.00 | 0.00 | 0.00 | 1010.5 | ||
| 20260506122539 | 0 | 0.0 | 0.0 | 0.00 | 0.00 | 0.00 | 1010.7 | ||
| 20260506122038 | 0 | 0.0 | 0.0 | 0.00 | 0.00 | 0.00 | 1010.6 | ||
| 20260506121557 | 0 | 0.0 | 0.0 | 0.00 | 0.00 | 0.00 | 1010.5 | ||
| 20260506121038 | 0 | 0.0 | 0.0 | 0.00 | 0.00 | 0.00 | 1010.5 | ||
| 20260506120538 | 0 | 0.0 | 0.0 | 0.00 | 0.00 | 0.00 | 1010.5 | ||
| 20260506120056 | 0 | 0.0 | 0.0 | 0.00 | 0.00 | 0.00 | 1010.4 | ||
| 20260506115542 | 0 | 0.0 | 0.0 | 0.00 | 0.00 | 0.00 | 1010.4 | ||
| 20260506115039 | 0 | 0.0 | 0.0 | 0.00 | 0.00 | 0.00 | 1010.5 |